[[{"header":{"parameterUnit":"m.s-1","parameterCategory":1,"la1":30.2991,"la2":30.254,"lo1":-89.0895,"lo2":-89.0444,"dy":0.0017,"dx":0.0017,"nx":28,"ny":28,"refTime":"2023-10-18T21:00:00:Z","depth":0,"parameterNumber":2,"parameterNumberName":"U-component_of_WINDS"},"data":[0,0,0,0,0,0,0,0,0,0,0,0,0,0,0,0,0,0,0,0,0,0,0,0,0,0,0,0,0,0,0,0,0,0,0,0,0,0,0,0,0,0,0,0,0,0,0,0,0,0,0,0,0,0,0,0,0,0,2.4632,2.4632,0,2.4642,2.4642,2.4643,2.4639,2.4639,2.4638,2.4638,2.4647,2.4647,2.4648,0,0,0,0,0,0,0,0,0,0,0,0,0,2.4607,2.4608,2.4632,2.4632,2.4632,2.4642,2.4642,2.4643,2.4639,2.4639,2.4638,2.4638,2.4647,2.4647,2.4648,0,0,0,0,0,0,0,0,0,0,0,0,0,2.4618,2.4608,2.4632,2.4632,2.4632,2.4642,2.4642,2.4643,2.4639,2.4639,2.4638,2.4638,2.4646,2.4647,2.4648,2.4659,0,0,2.465,2.465,0,0,0,0,0,0,0,0,2.4617,2.4619,2.4631,2.4632,2.4632,2.4639,2.4637,2.4648,2.4639,2.4636,2.4638,2.4638,2.4644,2.4645,2.4648,2.4659,2.4659,2.465,2.465,2.4651,2.4651,0,0,0,0,0,0,0,2.4617,2.4618,2.4636,2.4632,2.4632,2.463,2.4632,2.4639,2.4642,2.4636,2.4636,2.4637,2.4644,2.4647,2.4648,2.466,2.465,2.465,2.4651,2.4651,2.4681,2.4682,0,0,0,0,0,0,2.4616,2.4618,2.4636,2.4636,2.4624,2.4631,2.4632,2.4637,2.4642,2.4642,2.4638,2.4637,2.4646,2.4647,2.4648,2.4662,2.465,2.4651,2.4652,2.4681,2.4681,2.4682,0,0,0,0,0,0,2.4616,2.4618,2.4635,2.4627,2.4629,2.4632,2.4637,2.4637,2.464,2.4643,2.4643,2.464,2.4646,2.4647,2.4656,2.4662,2.4651,2.4652,2.468,2.4681,2.4682,2.4689,0,0,0,0,0,0,2.4615,2.4618,2.4622,2.4627,2.463,2.4644,2.4637,2.4638,2.4642,2.4641,2.4645,2.4646,2.4646,2.4656,2.4657,2.4663,2.4653,2.468,2.4681,2.4681,2.4688,2.4689,2.4691,0,0,0,0,0,2.4614,2.4623,2.4622,2.4624,2.4635,2.4644,2.4645,2.4646,2.4642,2.4646,2.4648,2.4646,2.4661,2.4656,2.4658,2.4664,2.468,2.4681,2.4681,2.4687,2.4689,2.4691,0,0,0,0,0,0,2.4617,2.4623,2.4623,2.4633,2.4638,2.4643,2.4648,2.4647,2.4653,2.4652,2.4652,2.4653,2.4662,2.4664,2.4659,2.4675,2.467,2.4671,2.4674,2.4676,2.4677,2.4676,2.4653,0,0,0,0,0,2.4619,2.4626,2.4631,2.464,2.4643,2.4645,2.4649,2.4649,2.4654,2.4656,2.4658,2.4662,2.4668,2.4672,2.4678,2.4689,2.4689,2.4694,2.4695,2.4696,2.4697,2.4703,2.4705,2.4685,2.4685,2.4685,0,0,2.4623,2.4627,2.4631,2.4641,2.4645,2.4652,2.4647,2.4654,2.4659,2.4656,2.4666,2.4668,2.4672,2.4683,2.4687,2.4685,2.4703,2.4697,2.4698,2.4698,2.4705,2.4706,2.4708,2.4686,2.4685,2.4685,0,0,2.4633,2.4638,2.4646,2.465,2.4657,2.4658,2.4661,2.4666,2.4668,2.4677,2.4675,2.4681,2.4692,2.4695,2.4698,2.4712,2.471,2.4714,2.4721,2.4727,2.4729,2.473,2.4735,2.4737,2.4715,2.4715,2.4715,0,2.4637,2.4648,2.465,2.4658,2.4662,2.4662,2.467,2.4674,2.4681,2.4684,2.4681,2.4695,2.4698,2.4709,2.4713,2.4715,2.4717,2.4713,2.4729,2.473,2.4731,2.4736,2.4738,2.4716,2.4716,2.4716,2.4716,0,2.4653,2.466,2.4666,2.4675,2.468,2.4688,2.4691,2.4696,2.4696,2.4698,2.4708,2.4712,2.4719,2.4722,2.4721,2.4733,2.4731,2.4729,2.4723,2.4734,2.4738,2.474,2.4716,2.4716,2.4716,2.4716,0,0,2.4664,2.4675,2.4677,2.4681,2.4689,2.4694,2.4703,2.4711,2.4715,2.472,2.4727,2.4737,2.4734,2.4738,2.4738,2.4744,2.4755,2.4741,2.4741,2.4743,2.4768,2.477,2.4772,2.4754,2.4754,2.4755,2.4768,0,2.4675,2.469,2.4693,2.4706,2.4714,2.4714,2.4721,2.4727,2.4729,2.4736,2.4739,2.4745,2.4742,2.4744,2.475,2.4752,2.476,2.4752,2.476,2.476,2.4758,2.4774,2.4776,2.4788,2.477,2.477,2.477,0,2.469,2.4697,2.4712,2.4719,2.4723,2.4729,2.4737,2.4743,2.4749,2.4751,2.4756,2.4756,2.4764,2.4759,2.4771,2.4765,2.4769,2.4771,2.4771,2.4771,2.4765,2.4775,2.4792,2.4794,2.4773,2.4773,2.4773,0,2.4696,2.471,2.4721,2.4724,2.4733,2.4738,2.4742,2.4748,2.4753,2.476,2.4763,2.477,2.4774,2.4779,2.4781,2.4777,2.4793,2.4788,2.4794,2.4794,2.4796,2.4796,2.4814,2.48,2.48,2.48,2.48,0,2.4708,2.4717,2.4724,2.473,2.474,2.4744,2.4753,2.4757,2.4763,2.477,2.477,2.4776,2.4779,2.4786,2.4787,2.4797,2.4798,2.48,2.48,2.4799,2.4799,2.4801,2.48,2.48,2.48,2.48,2.48,0,2.4717,2.4722,2.4733,2.4742,2.4745,2.4752,2.4759,2.4765,2.4768,2.4777,2.4779,2.4784,2.4792,2.4795,2.4804,2.4806,2.4817,2.4816,2.4815,2.4815,2.4821,2.482,2.484,2.4843,2.4827,2.4827,2.4827,0,2.4724,2.4731,2.4741,2.4746,2.4751,2.4759,2.4764,2.4768,2.4774,2.4782,2.4787,2.4796,2.4802,2.4815,2.4819,2.4827,2.4826,2.4833,2.4827,2.4827,2.4826,2.4825,2.4826,2.4834,2.4834,2.4834,2.4834,0,2.4736,2.4738,2.4746,2.4756,2.4763,2.477,2.4777,2.4781,2.4786,2.4792,2.4801,2.4806,2.4817,2.4825,2.4833,2.4836,2.4836,2.4836,2.4838,2.4837,2.4836,2.4836,2.4817,2.4835,2.4835,2.4835,2.4835,2.4835,2.4744,2.475,2.4759,2.4768,2.4774,2.4781,2.4788,2.4793,2.48,2.481,2.4812,2.4821,2.4828,2.4839,2.4843,2.485,2.4848,2.4851,2.4851,2.4852,2.4852,2.4835,2.4851,2.4851,2.4851,2.4851,2.4851,0,2.4755,2.4761,2.477,2.4781,2.4788,2.4789,2.4797,2.4803,2.4811,2.4818,2.4826,2.4836,2.4844,2.485,2.4858,2.4863,2.4863,2.4865,2.4864,2.4865,2.4853,2.4851,2.4865,2.4865,2.4865,2.4865,2.4865,2.4865,2.4762,2.4774,2.4778,2.4792,2.4798,2.4808,2.4813,2.4819,2.4825,2.4837,2.4844,2.4848,2.4854,2.4863,2.4871,2.4872,2.4875,2.4877,2.4878,2.4867,2.4866,2.4864,2.4862,2.4878,2.4878,2.4889,2.4889,2.4889]},{"header":{"parameterUnit":"m.s-1","parameterCategory":1,"la1":30.2991,"la2":30.254,"lo1":-89.0895,"lo2":-89.0444,"dy":0.0017,"dx":0.0017,"nx":28,"ny":28,"refTime":"2023-10-18T21:00:00:Z","depth":0,"parameterNumber":3,"parameterNumberName":"V-component_of_WINDS"},"data":[0,0,0,0,0,0,0,0,0,0,0,0,0,0,0,0,0,0,0,0,0,0,0,0,0,0,0,0,0,0,0,0,0,0,0,0,0,0,0,0,0,0,0,0,0,0,0,0,0,0,0,0,0,0,0,0,0,0,1.5723,1.5723,0,1.5759,1.576,1.576,1.5796,1.5796,1.5797,1.5797,1.5833,1.5833,1.5834,0,0,0,0,0,0,0,0,0,0,0,0,0,1.5682,1.5682,1.5723,1.5723,1.5724,1.5759,1.576,1.576,1.5796,1.5796,1.5797,1.5798,1.5833,1.5833,1.5834,0,0,0,0,0,0,0,0,0,0,0,0,0,1.5707,1.5683,1.5723,1.5746,1.5748,1.5759,1.576,1.576,1.5796,1.5796,1.5797,1.5798,1.5833,1.5833,1.5834,1.5825,0,0,1.5836,1.5837,0,0,0,0,0,0,0,0,1.5706,1.5708,1.5742,1.5744,1.5747,1.5774,1.5759,1.5782,1.5796,1.5778,1.5797,1.5798,1.5813,1.5815,1.582,1.5826,1.5828,1.5837,1.5837,1.5837,1.5838,0,0,0,0,0,0,0,1.5704,1.5707,1.5737,1.5742,1.5745,1.5754,1.5758,1.5763,1.5791,1.5779,1.5782,1.5786,1.5814,1.582,1.5821,1.5829,1.5836,1.5837,1.5838,1.5838,1.583,1.5829,0,0,0,0,0,0,1.5699,1.5705,1.5736,1.5738,1.5728,1.5754,1.5759,1.5764,1.5791,1.5795,1.5785,1.5787,1.5818,1.5821,1.5823,1.5814,1.5837,1.5838,1.5838,1.583,1.5829,1.5829,0,0,0,0,0,0,1.5698,1.5701,1.5734,1.5723,1.5728,1.5754,1.576,1.5765,1.577,1.5795,1.58,1.5786,1.5819,1.5822,1.5824,1.5816,1.5838,1.5839,1.5831,1.583,1.5829,1.5796,0,0,0,0,0,0,1.5696,1.5701,1.5698,1.5722,1.5728,1.5736,1.5759,1.5765,1.5772,1.5775,1.5797,1.5801,1.5819,1.5823,1.5825,1.5817,1.584,1.5832,1.5831,1.5829,1.5798,1.5794,1.5791,0,0,0,0,0,1.5695,1.5686,1.5697,1.5701,1.5725,1.5735,1.5738,1.576,1.5771,1.5768,1.5784,1.5801,1.5816,1.5823,1.5826,1.5818,1.5833,1.5831,1.5829,1.58,1.5795,1.5791,0,0,0,0,0,0,1.5659,1.569,1.5702,1.5702,1.5716,1.5741,1.5738,1.5754,1.5764,1.5767,1.5792,1.5797,1.5796,1.5807,1.5814,1.5811,1.5827,1.5826,1.5804,1.5799,1.5796,1.5793,1.584,0,0,0,0,0,1.5651,1.5657,1.5684,1.5681,1.5687,1.5711,1.5717,1.5732,1.5747,1.5753,1.5769,1.5783,1.5791,1.5796,1.5804,1.58,1.5806,1.5796,1.5793,1.5789,1.5788,1.5787,1.5783,1.5824,1.5824,1.5824,0,0,1.5635,1.5652,1.5655,1.5674,1.5687,1.5692,1.5716,1.5721,1.5725,1.5753,1.5757,1.577,1.5786,1.5786,1.5786,1.5795,1.5778,1.5787,1.5785,1.5785,1.5785,1.5781,1.5778,1.5823,1.5823,1.5823,0,0,1.5608,1.5622,1.5621,1.5633,1.5653,1.5669,1.5669,1.5692,1.5702,1.5706,1.5728,1.5733,1.5746,1.5757,1.5765,1.5743,1.5759,1.5745,1.5726,1.5724,1.5721,1.5719,1.5711,1.5708,1.5744,1.5744,1.5744,0,1.5585,1.5595,1.5618,1.5622,1.563,1.5657,1.5656,1.5667,1.5687,1.5692,1.5702,1.572,1.5733,1.5735,1.573,1.5735,1.5736,1.5743,1.572,1.5718,1.5715,1.5708,1.5705,1.5742,1.5742,1.5742,1.5742,0,1.5566,1.5572,1.5569,1.5589,1.5597,1.5598,1.5622,1.5627,1.5642,1.5657,1.5661,1.5678,1.5691,1.5692,1.5706,1.5697,1.5702,1.5715,1.5732,1.5709,1.5703,1.5701,1.5739,1.574,1.574,1.5741,0,0,1.5517,1.5551,1.5549,1.5559,1.5583,1.5588,1.559,1.5604,1.5608,1.5621,1.5624,1.5635,1.5648,1.5656,1.5672,1.5671,1.5653,1.5684,1.5685,1.5678,1.5644,1.5633,1.563,1.5663,1.5663,1.5662,1.5642,0,1.5494,1.5501,1.5523,1.5523,1.553,1.5556,1.5558,1.5572,1.5587,1.5594,1.5609,1.5617,1.5633,1.5638,1.5639,1.5655,1.5646,1.5656,1.5666,1.5666,1.5661,1.5627,1.5616,1.5596,1.564,1.564,1.5639,0,1.5468,1.5481,1.5482,1.5506,1.5509,1.5511,1.5526,1.5532,1.5549,1.556,1.5569,1.5587,1.5591,1.5607,1.5613,1.5619,1.5624,1.5633,1.5633,1.5634,1.5651,1.5628,1.559,1.5587,1.5636,1.5636,1.5636,0,1.5433,1.545,1.5453,1.5461,1.5489,1.5489,1.5501,1.5518,1.5525,1.5538,1.5542,1.5555,1.5561,1.557,1.5591,1.56,1.5594,1.5612,1.5603,1.5602,1.5601,1.56,1.5563,1.5604,1.5604,1.5604,1.5604,0,1.5405,1.5405,1.5438,1.544,1.5441,1.5465,1.5465,1.5479,1.5494,1.5499,1.5522,1.5526,1.5553,1.556,1.5576,1.5578,1.5581,1.5589,1.5593,1.5587,1.5586,1.5591,1.5593,1.5603,1.5603,1.5603,1.5603,0,1.5366,1.5388,1.5393,1.5419,1.5426,1.5425,1.5447,1.545,1.5466,1.5472,1.5475,1.5499,1.5509,1.553,1.5545,1.5556,1.5554,1.5562,1.5549,1.5551,1.5542,1.5542,1.5506,1.5503,1.5545,1.5544,1.5544,0,1.5347,1.5347,1.5374,1.5379,1.539,1.5398,1.5405,1.543,1.5437,1.5456,1.5457,1.5468,1.5478,1.5492,1.5511,1.5523,1.5531,1.5517,1.5532,1.5526,1.5531,1.553,1.5531,1.5514,1.5513,1.5513,1.5512,0,1.531,1.5322,1.5332,1.5346,1.5355,1.5367,1.538,1.5383,1.5411,1.5417,1.5427,1.5436,1.5451,1.5462,1.5477,1.5488,1.5505,1.5508,1.5506,1.55,1.5492,1.5497,1.554,1.5508,1.5509,1.5509,1.5509,1.5509,1.5281,1.5283,1.5302,1.5313,1.5326,1.5338,1.5342,1.5359,1.5368,1.5383,1.5397,1.5406,1.5423,1.5445,1.5455,1.5462,1.547,1.5468,1.5468,1.5467,1.5464,1.5491,1.5465,1.5465,1.5465,1.5465,1.5465,0,1.5246,1.526,1.527,1.5288,1.5297,1.5313,1.5328,1.5334,1.5342,1.5357,1.5367,1.5379,1.539,1.541,1.5423,1.5424,1.5432,1.5427,1.5427,1.5429,1.5456,1.5456,1.542,1.542,1.542,1.542,1.542,1.542,1.5229,1.5234,1.5247,1.5258,1.5272,1.5282,1.5289,1.53,1.5313,1.5325,1.5335,1.5348,1.5365,1.5379,1.539,1.5395,1.5399,1.5391,1.5399,1.5423,1.5427,1.5431,1.5432,1.5391,1.5391,1.5372,1.5371,1.5371]}]]